Weather History for KPIL - January, 2014

Change the Weather History Date:

Wednesday, January 8, 2014

  Actual Average Record
Temperature  
Mean Temperature 60 °F -  
Max Temperature 69 °F - - ()
Min Temperature 51 °F - - ()
Degree Days  
Heating Degree Days 5    
Growing Degree Days 10 (Base 50)    
Moisture  
Dew Point 55 °F    
Average Humidity 89    
Maximum Humidity 97    
Minimum Humidity 73    
Precipitation  
Precipitation 0.00 in - - ()
Sea Level Pressure  
Sea Level Pressure 30.20 in    
Wind  
Wind Speed 3 mph (South)    
Max Wind Speed 12 mph    
Max Gust Speed -    
Visibility 7 miles    
Events Rain    
T = Trace of Precipitation, MM = Missing Value Source: NWS Daily Summary

Daily Weather History Graph

Daily Weather History Graph

Search for Another Location

Airport or City:

Trip Planner

Search our weather history database for the weather conditions in past years. The results will help you decide how hot, cold, wet, or windy it might be!

Date:

Astronomy

Jan. 08, 2014 Rise Set
Actual Time 7:18 AM CST 5:54 PM CST
Civil Twilight 6:53 AM CST 6:19 PM CST
Nautical Twilight 6:24 AM CST 6:47 PM CST
Astronomical Twilight 5:56 AM CST 7:15 PM CST
Moon 12:30 PM CST (1/8) 12:45 AM CST (1/8)
Length of Visible Light 11h 26m
Length of Day
10h 35m
First Quarter, 56% of the Moon is Illuminated
Jan 8
First Quarter
Jan 15
Full
Jan 23
Last Quarter
Jan 30
New
Feb 6
First Quarter

Hourly Weather History & Observations

Time (CST) Temp. Dew Point Humidity Pressure Visibility Wind Dir Wind Speed Gust Speed Precip Events Conditions
12:08 AM 51.8 °F 50.0 °F 94% 30.30 in 7.0 mi Calm Calm - 0.00 in   Overcast
12:22 AM 51.8 °F 50.0 °F 94% 30.29 in 7.0 mi Calm Calm - 0.00 in   Overcast
12:36 AM 51.8 °F 50.0 °F 94% 30.29 in 8.0 mi Calm Calm - 0.00 in   Overcast
12:53 AM 52.0 °F 51.1 °F 97% 30.28 in 8.0 mi WNW 3.5 mph - 0.00 in   Overcast
1:07 AM 53.6 °F 50.0 °F 88% 30.28 in 7.0 mi NW 3.5 mph - N/A   Overcast
1:16 AM 51.8 °F 50.0 °F 94% 30.28 in 7.0 mi West 3.5 mph - N/A   Overcast
1:53 AM 52.0 °F 50.0 °F 93% 30.26 in 6.0 mi Calm Calm - N/A   Overcast
2:03 AM 51.8 °F 50.0 °F 94% 30.26 in 6.0 mi Calm Calm - N/A   Overcast
2:13 AM 53.6 °F 50.0 °F 88% 30.26 in 7.0 mi WNW 3.5 mph - N/A   Overcast
2:19 AM 53.6 °F 50.0 °F 88% 30.26 in 7.0 mi West 3.5 mph - N/A   Overcast
2:32 AM 51.8 °F 50.0 °F 94% 30.26 in 6.0 mi Calm Calm - N/A   Overcast
2:44 AM 51.8 °F 50.0 °F 94% 30.25 in 6.0 mi Calm Calm - N/A   Overcast
2:53 AM 52.0 °F 50.0 °F 93% 30.25 in 6.0 mi Calm Calm - N/A   Overcast
3:03 AM 51.8 °F 50.0 °F 94% 30.24 in 5.0 mi Calm Calm - N/A   Overcast
3:41 AM 51.8 °F 50.0 °F 94% 30.23 in 6.0 mi Calm Calm - N/A   Overcast
3:53 AM 52.0 °F 50.0 °F 93% 30.22 in 5.0 mi Calm Calm - N/A   Overcast
4:53 AM 52.0 °F 50.0 °F 93% 30.22 in 6.0 mi Calm Calm - N/A   Overcast
4:57 AM 51.8 °F 50.0 °F 94% 30.22 in 6.0 mi WNW 3.5 mph - N/A   Overcast
5:53 AM 52.0 °F 48.9 °F 89% 30.21 in 5.0 mi Calm Calm - 0.00 in Rain Light Rain
6:53 AM 52.0 °F 50.0 °F 93% 30.20 in 6.0 mi Calm Calm - 0.00 in   Overcast
7:33 AM 53.6 °F 50.0 °F 88% 30.20 in 6.0 mi Calm Calm - N/A   Overcast
7:53 AM 53.1 °F 50.0 °F 89% 30.21 in 5.0 mi Calm Calm - N/A   Overcast
8:53 AM 55.0 °F 52.0 °F 89% 30.22 in 5.0 mi SSE 3.5 mph - N/A   Overcast
9:05 AM 55.4 °F 53.6 °F 94% 30.23 in 5.0 mi Calm Calm - N/A   Overcast
9:27 AM 57.2 °F 55.4 °F 94% 30.23 in 5.0 mi Calm Calm - N/A   Mostly Cloudy
9:40 AM 59.0 °F 55.4 °F 88% 30.24 in 6.0 mi SSW 4.6 mph - N/A   Mostly Cloudy
9:53 AM 60.1 °F 55.9 °F 86% 30.24 in 8.0 mi SSW 3.5 mph - N/A   Overcast
10:04 AM 60.8 °F 57.2 °F 88% 30.24 in 8.0 mi South 3.5 mph - N/A   Overcast
10:32 AM 62.6 °F 57.2 °F 82% 30.23 in 8.0 mi South 9.2 mph - N/A   Mostly Cloudy
10:53 AM 64.9 °F 59.0 °F 81% 30.22 in 8.0 mi SSE 8.1 mph - N/A   Mostly Cloudy
11:03 AM 66.2 °F 59.0 °F 78% 30.22 in 8.0 mi SSE 10.4 mph - N/A   Mostly Cloudy
11:11 AM 66.2 °F 59.0 °F 78% 30.21 in 9.0 mi SSE 11.5 mph - N/A   Overcast
11:53 AM 64.9 °F 59.0 °F 81% 30.19 in 6.0 mi SSE 8.1 mph - 0.00 in Rain Light Rain
12:40 PM 64.4 °F 60.8 °F 88% 30.16 in 9.0 mi SSE 10.4 mph - 0.00 in   Overcast
12:53 PM 64.9 °F 60.1 °F 84% 30.16 in 9.0 mi SSE 10.4 mph - 0.00 in   Overcast
1:41 PM 66.2 °F 60.8 °F 83% 30.13 in 9.0 mi SSE 10.4 mph - N/A   Overcast
1:53 PM 68.0 °F 61.0 °F 78% 30.12 in 9.0 mi SSE 10.4 mph - N/A   Overcast
2:53 PM 69.1 °F 60.1 °F 73% 30.11 in 9.0 mi SSE 10.4 mph - N/A   Overcast
3:53 PM 64.0 °F 59.0 °F 84% 30.10 in 6.0 mi ESE 9.2 mph - N/A   Haze
4:53 PM 66.9 °F 60.1 °F 79% 30.09 in 9.0 mi SSE 10.4 mph - N/A   Overcast
5:53 PM 64.9 °F 60.1 °F 84% 30.09 in 10.0 mi SSE 9.2 mph - N/A   Overcast
6:53 PM 64.0 °F 60.1 °F 87% 30.10 in 10.0 mi SE 4.6 mph - N/A   Overcast
7:53 PM 63.0 °F 60.1 °F 90% 30.12 in 9.0 mi SE 5.8 mph - 0.00 in   Overcast
8:09 PM 62.6 °F 60.8 °F 94% 30.12 in 6.0 mi SE 5.8 mph - 0.00 in Rain Light Rain
8:48 PM 62.6 °F 60.8 °F 94% 30.13 in 8.0 mi SSE 5.8 mph - 0.00 in   Overcast
8:53 PM 63.0 °F 61.0 °F 93% 30.13 in 6.0 mi SSE 5.8 mph - 0.00 in Rain Light Rain
9:02 PM 62.6 °F 60.8 °F 94% 30.13 in 6.0 mi SSE 6.9 mph - 0.00 in Rain Light Rain
9:25 PM 62.6 °F 60.8 °F 94% 30.13 in 6.0 mi SSE 4.6 mph - 0.00 in Rain Light Rain
9:53 PM 63.0 °F 61.0 °F 93% 30.14 in 7.0 mi SSE 3.5 mph - 0.00 in Rain Light Rain
10:06 PM 62.6 °F 60.8 °F 94% 30.14 in 9.0 mi SSE 3.5 mph - 0.00 in   Overcast
10:30 PM 62.6 °F 60.8 °F 94% 30.14 in 9.0 mi South 3.5 mph - 0.00 in   Overcast
10:53 PM 63.0 °F 61.0 °F 93% 30.14 in 8.0 mi Calm Calm - 0.00 in   Overcast
11:53 PM 63.0 °F 60.1 °F 90% 30.14 in 8.0 mi Calm Calm - N/A   Overcast